"Pseudo-MPEC" for CCWE4Y2

Created 2025 Feb 5 1:31:07 UT using Find_Orb

Click here for an explanation of pseudo-MPECs

 
 Astrometry: 
     CCWE4Y2*1C2025 02 02.45571611 31 58.224+27 25 57.65   ~22Bl 20.57GVNEOCPG96
     CCWE4Y2 1C2025 02 02.46092011 31 59.318+27 26 40.96   ~22Bl 20.65GVNEOCPG96
     CCWE4Y2 1C2025 02 02.46612611 32 00.388+27 27 24.59   ~22Bl 21.06GVNEOCPG96
     CCWE4Y2  C2025 02 02.53661 11 32 15.34 +27 37 11.0    ~232l 21.0 GVNEOCPI52
     CCWE4Y2  C2025 02 02.53796 11 32 15.56 +27 37 23.5    ~232l       VNEOCPI52
     CCWE4Y2  C2025 02 02.54426 11 32 16.95 +27 38 15.1    ~232l       VNEOCPI52
     CCWE4Y2  C2025 02 02.54970 11 32 18.18 +27 39 00.6    ~232l 21.4 GVNEOCPI52
     CCWE4Y2 1C2025 02 03.13294011 34 32.527+29 00 34.00   ~2392 20.0 GXNEOCP033
     CCWE4Y2 1C2025 02 03.13481011 34 32.966+29 00 49.90   ~2392 20.4 GXNEOCP033
     CCWE4Y2 1C2025 02 03.13670011 34 33.355+29 01 05.89   ~2392 20.4 GXNEOCP033
     CCWE4Y2 1C2025 02 03.13859011 34 33.805+29 01 21.69   ~2392 20.2 GXNEOCP033
     CCWE4Y2 1C2025 02 03.14047011 34 34.205+29 01 36.99   ~2392 20.2 GXNEOCP033
     CCWE4Y2 1C2025 02 03.14248011 34 34.648+29 01 54.49   ~2392 20.3 GXNEOCP033
     CCWE4Y2 KC2025 02 03.51892311 36 01.206+29 55 01.56   ~23D2 21.13GVNEOCPI52
     CCWE4Y2 KC2025 02 03.52029911 36 01.580+29 55 12.79   ~23D2 21.47GVNEOCPI52
     CCWE4Y2 KC2025 02 03.52166911 36 01.868+29 55 24.67   ~23D2 20.92GVNEOCPI52
     CCWE4Y2 KB2025 02 03.88956311 37 32.39 +30 46 57.2    ~23Ml 20.8 GVNEOCPI93
     CCWE4Y2 KB2025 02 03.91644711 37 38.71 +30 50 47.2    ~23Ml 20.6 GVNEOCPI93
     CCWE4Y2 KC2025 02 03.94447611 37 44.84 +30 54 50.3    ~23NH 21.3 GVNEOCPL01
     CCWE4Y2 KC2025 02 03.94680711 37 45.39 +30 55 10.1    ~23NH 21.0 GVNEOCPL01
     CCWE4Y2 KC2025 02 03.94913911 37 45.92 +30 55 30.3    ~23NH 21.1 GVNEOCPL01

Station data:
(033) Karl Schwarzschild Observatory, Tautenburg  (N50.980139 E11.711240)
   Germany.  Observer B. Stecklum. 1.34-m f/3 Schmidt + CCD.
(G96) Mt. Lemmon Survey  (N32.442729 W110.788720)  US/Arizona.  Observer E.
   J. Christensen.  + 10K CCD.
(I52) Steward Observatory, Mt. Lemmon Station  (N32.442570 W110.788920)
   US/Arizona.  Observers T. A. Pruyne, B. M. Africano, E. J. Christensen, G.
   A. Farneth, D. C. Fuls, A. R. Gibbs, A. D. Grauer, H. Gröller, J. A.
   Johnson, R. A. Kowalski, S. M. Larson, G. J. Leonard, D. Rankin, R. L.
   Seaman, F. C. Shelly, K. W. Wierzchoś. 1.0-m prime focus + CCD.
(I93) St Pardon de Conques  (N44.558670 W0.202960)  France.  Observers F.
   Losse, W. D'Anna. Measurer F. Losse. 0.40-m f/3.7 reflector + CCD.
(L01) Višnjan Observatory, Tičan  (N45.290897 E13.749300)  Croatia.
   Observers K. Korlević, D. Pujagic, V. Dobos. Measurers D. Pujagic, K.
   Korlević. 1.0-m f/2.9 reflector + CCD.

Orbital elements:  CCWE4Y2
   Perihelion 2025 Apr 8.72370 +/- 0.868 TT = 17:22:07 (JD 2460774.22370)
Epoch 2025 Feb  3.0 TT = JDT 2460709.5   Earth MOID: 0.1914   Ma: 0.0287
M 316.59605940 +/- 0.9              (J2000 ecliptic)             AutoNEOCP
n   0.67060349 +/- 0.00622          Peri.   66.37419 +/- 0.8
a   1.29268341 +/- 0.00799          Node   130.94255 +/- 0.06
e   0.1575602 +/- 0.00356           Incl.   28.86668 +/- 0.29
P   1.470/536.820d         H 22.80  G  0.15   U  9.3
q 1.08900788 +/- 0.00228    Q 1.49635893 +/- 0.0138
From 21 observations 2025 Feb. 2-3 (35.8 hr); mean residual 0".36
Residuals in arcseconds: 
250202 G96  .25-  .04-    250203 033  .14-  .10-    250203 I52  .06+  .32-    
250202 G96  .18-  .18-    250203 033  .25+  .09+    250203 I52  .12-  .07+    
250202 G96  .44-  .00     250203 033  .07-  .21+    250203 I93  .46-  .51-    
250202 I52  .45+  .58-    250203 033  .41+  .14+    250203 I93  .05+  .52-    
250202 I52  .46-  .70+    250203 033  .25+  .35-    250203 L01  .03+  .36+    
250202 I52  .11+  .06-    250203 033  .29+  .27+    250203 L01  .28+  .27+    
250202 I52  .96+  .25+    250203 I52  .87-  .02-    250203 L01  .28+  .57+    

Ephemerides (geocentric):
Date (UTC) HH   RA             Dec           delta  r     elong  mag " sig PA
---- --------  ------------   ------------  ------ ------ -----  --- --------
2025 02 05 02  11 42 19.434   +33 35 51.80  .20893 1.1585 142.4 21.1 .884  77
2025 02 05 03  11 42 29.765   +33 41 44.63  .20891 1.1584 142.4 21.1 .919  77
2025 02 05 04  11 42 40.111   +33 47 37.42  .20889 1.1584 142.3 21.1 .955  76
2025 02 05 05  11 42 50.474   +33 53 30.17  .20888 1.1583 142.3 21.1 0.99  75
2025 02 05 06  11 43 00.853   +33 59 22.87  .20886 1.1582 142.2 21.1 1.03  75
2025 02 05 07  11 43 11.248   +34 05 15.53  .20885 1.1581 142.2 21.1 1.07  74
2025 02 05 08  11 43 21.660   +34 11 08.13  .20884 1.1580 142.2 21.1 1.10  73
2025 02 05 09  11 43 32.088   +34 17 00.67  .20882 1.1579 142.1 21.1 1.14  73
2025 02 05 10  11 43 42.532   +34 22 53.16  .20881 1.1579 142.1 21.1 1.18  72
2025 02 05 11  11 43 52.993   +34 28 45.59  .20880 1.1578 142.0 21.1 1.22  72
2025 02 05 12  11 44 03.470   +34 34 37.95  .20879 1.1577 142.0 21.1 1.26  71
2025 02 05 13  11 44 13.963   +34 40 30.24  .20878 1.1576 141.9 21.1 1.31  71
2025 02 05 14  11 44 24.473   +34 46 22.47  .20877 1.1575 141.9 21.1 1.35  70
2025 02 05 15  11 44 35.000   +34 52 14.62  .20877 1.1574 141.9 21.1 1.39  70
2025 02 05 16  11 44 45.543   +34 58 06.69  .20876 1.1574 141.8 21.1 1.44  69
2025 02 05 17  11 44 56.103   +35 03 58.68  .20875 1.1573 141.8 21.1 1.48  69
2025 02 05 18  11 45 06.679   +35 09 50.58  .20875 1.1572 141.7 21.1 1.52  68
2025 02 05 19  11 45 17.272   +35 15 42.41  .20874 1.1571 141.7 21.1 1.57  68
2025 02 05 20  11 45 27.882   +35 21 34.14  .20874 1.1570 141.6 21.1 1.62  67
2025 02 05 21  11 45 38.509   +35 27 25.77  .20874 1.1569 141.6 21.1 1.66  67
2025 02 05 22  11 45 49.152   +35 33 17.31  .20873 1.1569 141.5 21.1 1.71  67
2025 02 05 23  11 45 59.813   +35 39 08.75  .20873 1.1568 141.5 21.1 1.76  66
2025 02 06 00  11 46 10.490   +35 45 00.09  .20873 1.1567 141.5 21.1 1.81  66
2025 02 06 01  11 46 21.184   +35 50 51.33  .20873 1.1566 141.4 21.1 1.86  66
2025 02 06 02  11 46 31.896   +35 56 42.45  .20873 1.1565 141.4 21.1 1.91  65
2025 02 06 03  11 46 42.624   +36 02 33.46  .20874 1.1564 141.3 21.1 1.96  65
2025 02 06 04  11 46 53.370   +36 08 24.36  .20874 1.1564 141.3 21.1 2.01  65
2025 02 06 05  11 47 04.132   +36 14 15.14  .20874 1.1563 141.2 21.1 2.07  64
2025 02 06 06  11 47 14.912   +36 20 05.79  .20875 1.1562 141.2 21.1 2.12  64
2025 02 06 07  11 47 25.709   +36 25 56.32  .20875 1.1561 141.1 21.1 2.18  64
2025 02 06 08  11 47 36.523   +36 31 46.73  .20876 1.1560 141.1 21.1 2.23  63
2025 02 06 09  11 47 47.354   +36 37 37.00  .20876 1.1560 141.0 21.1 2.29  63
2025 02 06 10  11 47 58.203   +36 43 27.14  .20877 1.1559 141.0 21.1 2.34  63
2025 02 06 11  11 48 09.069   +36 49 17.14  .20878 1.1558 140.9 21.1 2.40  63
2025 02 06 12  11 48 19.953   +36 55 07.01  .20879 1.1557 140.9 21.1 2.46  62
2025 02 06 13  11 48 30.853   +37 00 56.72  .20880 1.1556 140.8 21.1 2.51  62
2025 02 06 14  11 48 41.772   +37 06 46.30  .20881 1.1555 140.8 21.1 2.57  62
2025 02 06 15  11 48 52.708   +37 12 35.72  .20882 1.1555 140.7 21.1 2.63  62
2025 02 06 16  11 49 03.661   +37 18 24.99  .20883 1.1554 140.7 21.1 2.69  61
2025 02 06 17  11 49 14.632   +37 24 14.11  .20884 1.1553 140.6 21.1 2.75  61
2025 02 06 18  11 49 25.621   +37 30 03.06  .20885 1.1552 140.6 21.1 2.81  61
2025 02 06 19  11 49 36.628   +37 35 51.86  .20887 1.1551 140.5 21.1 2.88  61
2025 02 06 20  11 49 47.652   +37 41 40.49  .20888 1.1551 140.5 21.1 2.94  61
2025 02 06 21  11 49 58.694   +37 47 28.95  .20890 1.1550 140.4 21.1 3.00  60
2025 02 06 22  11 50 09.754   +37 53 17.24  .20892 1.1549 140.4 21.1 3.07  60
2025 02 06 23  11 50 20.831   +37 59 05.36  .20893 1.1548 140.3 21.1 3.13  60
2025 02 07 00  11 50 31.927   +38 04 53.30  .20895 1.1547 140.3 21.1 3.20  60
2025 02 07 01  11 50 43.040   +38 10 41.06  .20897 1.1546 140.2 21.1 3.26  60